Regional Weather Roundup
Issued by NWS Grand Forks, ND

Home | Current Version | Previous Version | Text Only | Print | Product List | Glossary Off
Versions: 1 2 3 4 5 6 7 8 9 10 11 12 13 14 15 16 17 18 19 20 21 22 23 24 25 26 27 28 29 30 31 32 33 34 35 36 37 38 39 40 41 42 43 44 45 46 47 48 49 50

000
ASUS43 KFGF 281731
RWRFGF
PRAIRIE TO PINES  WEATHER ROUNDUP
NATIONAL WEATHER SERVICE EASTERN NORTH DAKOTA/GRAND FORKS ND
1200 PM CDT TUE JUL 28 2015

 **SATELLITE DATA USED TO AUGMENT SKY COVER AT AUTOMATED STATIONS**
 *****  WEATHER ACROSS EASTERN NORTH DAKOTA  *****

CITY           SKY/WX    TMP DP  RH WIND       PRES   REMARKS
GRAND FORKS    MOSUNNY   76  61  59 SW15G25   29.62R
GRAND FRKS AFB MOSUNNY   75  61  61 W17G24    29.62S
GRAND FRKS NWS   N/A     73 N/A N/A SW14        N/A
DEVILS LAKE    PTSUNNY   70  52  52 SW23G30   29.61R
FARGO          MOSUNNY   75  62  64 SW17      29.69R
WAHPETON ARPT  MOSUNNY   73  59  60 SW16G22   29.76R
$$

 ***** WEATHER ACROSS CENTRAL AND WESTERN NORTH DAKOTA  *****

CITY           SKY/WX    TMP DP  RH WIND       PRES   REMARKS
BISMARCK       PTSUNNY   70  48  45 W26G39    29.73F
MINOT          CLOUDY    65  51  60 S18G32    29.53F
JAMESTOWN      PTSUNNY   71  55  56 SW17G28   29.71R
MINOT AFB      CLOUDY    66  55  68 SW24G36   29.50F
GARRISON         N/A     65  53  65 SW29G45   29.60F
WILLISTON      LGT RAIN  59  55  87 W28G40    29.53S FOG
DICKINSON      CLOUDY    64  49  57 W43G56    29.72S
HETTINGER      CLOUDY    65  45  48 W33G45    29.86R
$$

 *****  OTHER AIRPORT OBSERVATIONS IN OUR AREA  *****

CITY           SKY/WX    TMP DP  RH WIND       PRES   REMARKS
WALHALLA       FAIR      73  61  64 MISG      29.55F
GRAFTON AIRPOR FAIR      75  63  64 SW22      29.60R
VALLEY CITY AR FAIR      72  59  64 SW23G30   29.71S
CANDO          FAIR      68  55  64 SW21G33   29.58S
CAVALIER APRT  PTSUNNY   73  63  68 SW14G20   29.56S
GWINNER        FAIR     N/A N/A N/A SW21G29   29.76S
SHEYENNE NWR     N/A     73  60  63 W14       29.95S
ROLLA          CLOUDY    64  54  68 SW21G30   29.55F
 ***** THE ABOVE OBSERVATIONS ARE NON NWS ARE NOT QUALITY
       CONTROLLED AND MAY MIS-REPORT RAIN FOR SNOW...
$$

  *****  WEATHER ACROSS NORTHERN MINNESOTA  *****

CITY           SKY/WX    TMP DP  RH WIND       PRES   REMARKS
FLAG ISLAND    CLOUDY    73  70  88 SE15      29.60F
WARROAD        CLOUDY    79  73  83 S10G17    29.61F
ROSEAU         PTSUNNY   79  70  73 S15       29.60S
HALLOCK        PTSUNNY   77  66  69 SW21      29.56R
THF RVR FALLS  PTSUNNY   75  66  73 SW15G23   29.63S
BAUDETTE       LGT RAIN  73  70  90 S9        29.64F FOG
WASKISH        PTSUNNY   75  73  94 S7        29.66F
CROOKSTON      MOSUNNY   75  64  69 W17G25    29.64S
STEPHEN NDAWN    N/A     77  66  69 SW15        N/A
GREENBUSH NDAW   N/A     75  66  73 SW15        N/A
$$
  *****  WEATHER ACROSS CENTRAL AND WEST MINNESOTA  *****

CITY           SKY/WX    TMP DP  RH WIND       PRES   REMARKS
FOSSTON        PTSUNNY   75  70  83 SW21G29   29.68S
BEMIDJI        CLOUDY    75  68  79 S13       29.69R
PARK RAPIDS    CLOUDY    75  68  78 SW14G22   29.74R
ELBOW LAKE     CLOUDY    75  67  76 SW16      29.77S
WADENA         PTSUNNY   75  66  73 SW21G26   29.75S
DETROIT LAKES  PTSUNNY   73  64  73 SW14G22   29.74R
MOORHEAD       MOSUNNY   75  63  64 SW15      29.71R
FERGUS FALLS   MOSUNNY   77  66  69 SW15      29.74R
MORRIS MN      PTSUNNY   79  70  73 SW16G22   29.78R
STAPLES        CLOUDY    75  66  73 SW12G20   29.77R
$$
  *****  WEATHER ELSEWHERE ACROSS MINNESOTA  *****

CITY           SKY/WX    TMP DP  RH WIND       PRES   REMARKS
DULUTH         PTSUNNY   78  68  71 SW20G30   29.79R
INTRNTL FALLS  RAIN      72  70  93 SE13      29.68F FOG
ELY            CLOUDY    73  66  78 S9        29.79F
CLOQUET        CLOUDY    77  68  73 S14G23    29.79R
WHEATON        MOSUNNY   73  63  68 SW16G23   29.79R
BRAINERD       PTSUNNY   76  67  73 S15G29    29.78S
HIBBING        PTSUNNY   79  68  69 S10G24    29.76R
ALEXANDRIA     PTSUNNY   77  67  71 SW16G24   29.80R
SAINT CLOUD    CLOUDY    78  68  71 S20       29.82S
MINNEAPOLIS    CLOUDY    77  68  73 S12       29.84R
$$

  *****  WEATHER ACROSS SOUTH DAKOTA  *****

CITY           SKY/WX    TMP DP  RH WIND       PRES   REMARKS
SIOUX FALLS    CLOUDY    75  69  81 W16G26    29.86R
BROOKINGS      CLOUDY    72  64  78 W16       29.88R
WATERTOWN      NOT AVBL
HURON          SUNNY     73  58  59 W18       29.89R
SISSETON         N/A     75  62  64 W21G29    29.77R
ABERDEEN       SUNNY     73  55  53 SW20G28   29.83S
MITCHELL       SUNNY     75  63  66 W17G24    29.90R
PIERRE         SUNNY     75  49  39 W22       29.90S
MOBRIDGE       SUNNY     72  51  47 W21G38    29.82R
RAPID CITY     SUNNY     72  42  34 W13G23    30.02R
$$

  *****  SOME WEATHER IN NEARBY STATES *****

CITY           SKY/WX    TMP DP  RH WIND       PRES   REMARKS
GLASGOW MT     RAIN      56  52  86 W35G47    29.75R FOG
GREAT FALLS MT SUNNY     66  40  38 W16G29    30.10S
CHEYENNE WY    SUNNY     72  31  22 W21G30    30.19R
SCOTTSBLUFF NE SUNNY     74  37  26 W16G24    30.10R
OMAHA NE       MOSUNNY   84  73  69 SE16      29.85S HX  90
DES MOINES IA  CLOUDY    78  73  84 SE14G21   29.87F
DAVENPORT IA   CLOUDY    79  74  84 SE5       29.99R
CHICAGO IL     PTSUNNY   85  68  56 S5        29.98F
EAU CLAIRE WI  CLOUDY    76  68  76 S14       29.82S
LA CROSSE WI   LGT RAIN  72  70  93 SE10G18   29.86F FOG
$$

  *****  SOME NATIONAL WEATHER *****

CITY           SKY/WX    TMP DP  RH WIND       PRES   REMARKS
LA GUARDIA NY  PTSUNNY   90  57  32 N8        29.96F
RALEIGH NC     PTSUNNY   86  70  58 SE7       30.03S HX  90
ATLANTA GA     MOSUNNY   91  73  55 W3        30.03S HX  99
NEW ORLEANS LA MOSUNNY   91  73  55 VRB3      30.01F HX  99
OKLAHOMA CITY  SUNNY     91  72  53 S17       29.94R HX  98
ALBUQUERQUE NM MOSUNNY   83  47  28 CALM      30.17S
SALT LAKE CITY SUNNY     69  22  16 N12       30.28R
LOS ANGELES CA MOSUNNY   75  61  61 VRB6      29.91F
BOISE ID       SUNNY     66  39  37 W5        30.27S
SEATTLE WA     SUNNY     70  52  52 N9        30.28F HAZE
$$

*** WEATHER ACROSS MANITOBA...SASKATCHEWAN AND ONTARIO ***
                ***ONTARIO***

CITY           SKY/WX    TMP DP  RH WIND       PRES   REMARKS
GERALDTON      PTSUNNY   84  63  48 S14G21    29.92R
THUNDER BAY    CLOUDY    68  61  77 E15       29.90S
SIOUX LOOKOUT  CLOUDY    77  68  73 S8G17     29.76F
TORONTO        MOSUNNY   88  59  37 SE9       30.02S
BIG TROUT LK   SUNNY     84  59  42 SE6       29.75F
PICKLE LAKE    PTSUNNY   84  64  51 S15G25    29.79S
DRYDEN         LGT RAIN  75  68  78 S14       29.74F
KENORA         CLOUDY    72  70  94 SE13      29.65F
$$
                *** MANITOBA***

CITY           SKY/WX    TMP DP  RH WIND       PRES   REMARKS
BRANDON        PTSUNNY   70  59  68 SW23G32   29.46F
DAUPHIN        PTSUNNY   70  64  83 S22       29.38S
ISLAND LAKE    CLOUDY    77  63  61 N12       29.62F
PILOT MOUND      N/A     68  59  73 SW18G29     N/A
THE PAS        LGT RAIN  63  59  88 NE12G20   29.50F
THOMPSON       LGT RAIN  66  61  82 NE5       29.70S
WINNIPEG       PTSUNNY   77  70  78 SW20      29.49F
LYNN LAKE        N/A    N/A N/A N/A MISG        N/A
CHURCHILL      PTSUNNY   55  50  82 E9        29.75F
GILLAM         CLOUDY    77  57  50 E5        29.73S
$$
                ***SASKATCHEWAN***

CITY           SKY/WX    TMP DP  RH WIND       PRES   REMARKS
ESTEVAN        CLOUDY    63  55  77 SW26G38   29.35F
KINDERSLEY     CLOUDY    61  52  72 NW17G28   29.78R
LLOYDMINSTER   PTSUNNY   64  50  59 NW14G23   29.84F
PRINCE ALBERT  LGT RAIN  59  57  94 N14       29.62F FOG
REGINA         LGT RAIN  59  59 100 NW8       29.26S FOG
YORKTON        CLOUDY    68  59  73 S13       29.34S
N. BATTLEFORD  SUNNY     66  52  59 NW16G23   29.75S
LA RONGE       CLOUDY    70  52  52 N14G20    29.71F
SASKATOON      LGT RAIN  59  55  88 N21G31    29.63R
SWIFT CURRENT  LGT RAIN  54 N/A N/A NW24G33   29.70R
$$
NOTE: THESE ARE AUTOMATED STATIONS WITH LIMITED QUALITY CONTROL
      "FAIR" INDICATES FEW OR NO CLOUDS BELOW 12,000 FEET WITH NO
      SIGNIFICANT WEATHER AND/OR OBSTRUCTIONS TO VISIBILITY.
      SKY/WX - SKY CONDITION AND SIGNIFICANT WEATHER.
      TMP - AIR TEMPERATURE.    DP   - DEWPOINT TEMPERATURE.
      RH  - RELATIVE HUMIDITY.  PRES - PRESSURE.
      HX  - HEAT INDEX.         WCI  - WIND CHILL INDEX.
$


USA.gov is the U.S. government's official web portal to all federal, state and local government web resources and services.